This is the latest recevied weather packets stored in our database for station/object KE5WTH-14. If no packets are shown the sender has not sent any weather packets the latest 1 day(s).
| Time | Temp. | Humidity | Pressure | Rain* | Wind** | Luminosity | Snow |
|---|---|---|---|---|---|---|---|
| 1777979294 | 21.67° C | 83% | 1003.5 hPa | 0 mm | 3.58 m/s, 200° | 0 W/m² | - |
| 1777979232 | 22.22° C | 83% | 1003.5 hPa | 0 mm | 3.58 m/s, 223° | 0 W/m² | - |
| 1777979169 | 22.22° C | 83% | 1003.6 hPa | 0 mm | 4.02 m/s, 190° | 0 W/m² | - |
| 1777979105 | 22.22° C | 83% | 1003.5 hPa | 0 mm | 3.13 m/s, 203° | 0 W/m² | - |
| 1777979050 | 22.22° C | 83% | 1003.5 hPa | 0 mm | 3.13 m/s, 182° | 0 W/m² | - |
| 1777978982 | 22.22° C | 83% | 1003.4 hPa | 0 mm | 3.13 m/s, 189° | 0 W/m² | - |
| 1777978923 | 22.22° C | 83% | 1003.5 hPa | 0 mm | 2.68 m/s, 209° | 0 W/m² | - |
| 1777978863 | 22.22° C | 83% | 1003.6 hPa | 0 mm | 2.68 m/s, 199° | 0 W/m² | - |
| 1777978803 | 22.22° C | 83% | 1003.5 hPa | 0 mm | 3.13 m/s, 154° | 0 W/m² | - |
| 1777978743 | 22.22° C | 83% | 1003.6 hPa | 0 mm | 4.47 m/s, 188° | 0 W/m² | - |
| 1777978684 | 22.22° C | 83% | 1003.6 hPa | 0 mm | 4.47 m/s, 209° | 0 W/m² | - |
| 1777978650 | 22.22° C | 83% | 1003.6 hPa | 0 mm | 4.47 m/s, 171° | 0 W/m² | - |
| 1777978623 | 22.22° C | 83% | 1003.5 hPa | 0 mm | 4.47 m/s, 188° | 0 W/m² | - |
| 1777978592 | 22.22° C | 83% | 1003.6 hPa | 0 mm | 4.02 m/s, 189° | 0 W/m² | - |
| 1777978564 | 22.22° C | 83% | 1003.6 hPa | 0 mm | 4.47 m/s, 200° | 0 W/m² | - |
| 1777978376 | 22.22° C | 83% | 1003.5 hPa | 0 mm | 4.92 m/s, 178° | 0 W/m² | - |
| 1777978312 | 22.22° C | 83% | 1003.5 hPa | 0 mm | 3.58 m/s, 216° | 0 W/m² | - |
| 1777978252 | 22.22° C | 83% | 1003.6 hPa | 0 mm | 3.13 m/s, 216° | 0 W/m² | - |
| 1777978190 | 22.22° C | 83% | 1003.5 hPa | 0 mm | 3.58 m/s, 197° | 0 W/m² | - |
| 1777978123 | 22.22° C | 83% | 1003.5 hPa | 0 mm | 3.13 m/s, 189° | 0 W/m² | - |
| 1777978062 | 22.22° C | 82% | 1003.5 hPa | 0 mm | 3.58 m/s, 192° | 0 W/m² | - |
| 1777977999 | 22.22° C | 82% | 1003.5 hPa | 0 mm | 4.02 m/s, 227° | 0 W/m² | - |
| 1777977936 | 22.22° C | 82% | 1003.5 hPa | 0 mm | 4.47 m/s, 183° | 0 W/m² | - |
| 1777977878 | 22.22° C | 82% | 1003.6 hPa | 0 mm | 5.36 m/s, 212° | 0 W/m² | - |
| 1777977812 | 22.22° C | 83% | 1003.6 hPa | 0 mm | 4.92 m/s, 190° | 0 W/m² | - |
* Rain latest hour (hover to see other rain measurements)
** Current wind speed in m/s (hover to see current wind gust speed)